COSMOS 2251 DEB, 36371

Orbit data source: Space-Track

COSMOS 2251 DEB, 36371 is space debris in LEO originally from a launch on Wed, 16 Jun 1993 UTC launched from the Plesetsk Missile And Space Complex (PKMTR). The debris from Iridium 33, an American commercial communications satellite, has been tracked extensively since its accidental collision with the defunct Russian satellite Cosmos 2251 in 2009. This event, occurring at high speed in low Earth orbit (LEO), generated thousands of pieces of space debris, significantly increasing the risk of further collisions. The Iridium 33 debris cloud has impacted space traffic management and orbital debris mitigation strategies, making it a subject of ongoing study in space situational awareness.

Loading next visibility...
Identifier
36371, 1993-036AYY
Orbit
LEO
Country
Flag of CISCIS
Related business
Manufacturer
Unknown
Mission
Spacecraft
Bus & Motor
Unknown
Mass
Unknown
Launch date (UTC)
1993-06-16 (33 years ago)
Launch vehicle
Unknown
Launch site
Plesetsk Missile And Space Complex (PKMTR)
Object type
Payload
Rocket body
Debris
Shape & HBR
Unknown shape, 0.1 m
Radar Cross Section
Small (<0.1 m²)

Expand to show TLE details & history
Last TLE update: 6 days ago

TLE from 6 days ago
0 COSMOS 2251 DEB
1 36371U 93036AYY 26057.55756626  .00014222  00000-0  22282-2 0  9992
2 36371  74.0146  13.9369 0006486  17.5795 342.5600 14.72714315725608
Epoch: 2026-02-26T13:22Z
TLE epoch observation values (Epoch: 2026-02-26T13:22:53.724Z)
Latitude
-0.00009°
Longitude
16.80635°
Altitude
650.72 km
Speed
7.535 km/s
True Right ascension
00h 55m 44s
True Declination
0° 00' 00"
Sunlit
Object was in daylight at epoch
Visualization orbit readout
Latitude
Unknown
Longitude
Unknown
Altitude
Unknown
Speed
Unknown
Apparent Right ascension
Unknown
Apparent Declination
Unknown
Sunlit
N/A
Visualization observer readout
Local Sidereal Time
14:36:44
Azimuth
Unknown
Elevation
Unknown
Doppler factor
Unknown
Orbital elements
Apogee altitude
654.56 km
Perigee altitude
645.443 km
Semi-major axis
7,028.139 km
Eccentricity
0.00065
Inclination
74.0146°
RAAN
13.9369°
Arg. of periapsis
17.5795°
True anomaly
342.53771°
Mean anomaly
342.56°
Eccentric anomaly
342.54886°
Mean motion
3.68369 °/min
Orbital period
97.73 mins
BSTAR
0.0022282

Documentation

Showing up to 5 results
|